{"data":{"norad_id":53156,"intl_designator":"2022-083AA","name":"STARLINK-4087","alt_names":[],"object_type":"PAYLOAD","status":"ACTIVE","operator":null,"country":"US","launch_date":"2022-07-17","launch_site_code":"AFETR","launch_vehicle":null,"mission":null,"orbit_class":"UNKNOWN","rcs_meters":null,"size_class":null,"mass_kg":null,"dimensions":null,"purposes":["comms"],"wikipedia_slug":null,"has_3d_model":false,"image_url":null,"decayed_at":null,"tle_current":{"epoch":"2026-09-20T00:27:38.831616Z","epoch_age_seconds":113829,"freshness":"FRESH","line1":"1 53156U 22083AA  26263.01919944 -.00000584  00000+0 -61546-5 0  9996","line2":"2 53156  53.1607   5.6221 0001472  63.9196 296.1957 15.34388896230771","mean_motion":15.34388896,"eccentricity":0.0001472,"inclination_deg":53.1607,"raan_deg":5.6221,"arg_perigee_deg":63.9196,"mean_anomaly_deg":296.1957,"bstar":-6.1546e-6,"rev_number":23077,"period_min":93.84843723478,"perigee_km":461.72926729271,"apogee_km":463.74322037569,"semimajor_km":6840.8732438342,"source":"CELESTRAK","updated_at":"2026-09-20T09:00:40.182807Z"}}}